Regional Weather Roundup
Issued by NWS

Home | Current Version | Previous Version | Text Only | Print | Product List | Glossary On
Versions: 1 2 3 4 5 6 7 8 9 10 11 12 13 14 15 16 17 18 19 20 21 22 23 24 25 26 27 28 29 30 31 32 33 34 35 36 37 38 39 40 41 42 43 44 45 46 47 48 49 50
570
ASUS44 KLIX 011705
RWRLA
LOUISIANA WEATHER ROUNDUP
NATIONAL WEATHER SERVICE NEW ORLEANS LA
1200 PM CDT MON SEP 01 2014

NOTE: "FAIR" INDICATES FEW OR NO CLOUDS BELOW 12,000 FEET WITH NO
      SIGNIFICANT WEATHER AND/OR OBSTRUCTIONS TO VISIBILITY.
      SKY/WX - SKY CONDITION AND SIGNIFICANT WEATHER.
      TMP - AIR TEMPERATURE.    DP   - DEWPOINT TEMPERATURE.
      RH  - RELATIVE HUMIDITY.  PRES - PRESSURE.
      HX  - HEAT INDEX.         WCI  - WIND CHILL INDEX.

*  THESE STATIONS ARE NOT NWS OR FAA STATIONS AND ARE NOT UNDER
   NWS QUALITY CONTROL.

LAZ040-048-061>063-065-066-069-011800-
SOUTHEAST LOUISIANA

CITY           SKY/WX    TMP DP  RH WIND       PRES   REMARKS
N.O. AUDUBON     N/A     84  78  82 MISG        N/A  HX  96
N.O. INTL ARPT PTSUNNY   86  77  74 S10       30.05F THUNDER HX  97
N.O. LAKEFRONT PTSUNNY   85  74  69 S14       30.07S
N.O. DOWNTOWN* PTSUNNY   81  73  78 SE6       30.07S
SLIDELL        PTSUNNY   89  74  60 SE13      30.06F HX  98
BATON ROUGE    PTSUNNY   89  74  60 SE10      30.03F HX  98
BOOTHVILLE     MOSUNNY   83  78  85 SE7       30.08S
BELLE CHASSE   PTSUNNY   85  75  72 SE10      30.06R
BOGALUSA*        N/A     90  75  60 S9        30.08F HX 101
GALLIANO*      NOT AVBL
NEW ROADS*     FAIR      89  75  65 SE8       30.03F HX  99
GONZALES*      FAIR      84  76  75 SE7       30.05S
HAMMOND*       MOSUNNY   90  73  58 SE10G16   30.07F HX  98
HOUMA*         PTSUNNY   81  79  94 SE7       30.05F
PORT FOURCHON* SUNNY     86  77  74 SE13      30.08S HX  97

$$

LAZ041-044-053-054-011800-
SOUTHWEST LOUISIANA

CITY           SKY/WX    TMP DP  RH WIND       PRES   REMARKS
LAKE CHARLES   PTSUNNY   89  77  67 SE16      30.00S HX 101
LAFAYETTE      MOSUNNY   89  75  63 S12       30.02F HX  99
PATTERSON      PTSUNNY   90  79  70 E9        30.06F HX 105
SALT POINT       N/A     91  78  65 VRB7      30.02F HX 106
NEW IBERIA     MOSUNNY   90  76  63 S15       30.03S HX 101
CHENAULT AIRPK NOT AVBL

$$

LAZ027-028-011800-
CENTRAL LOUISIANA

CITY           SKY/WX    TMP DP  RH WIND       PRES   REMARKS
FORT POLK      MOSUNNY   86  75  69 S12       30.01F HX  95
ALEXANDRIA INT SUNNY     88  75  65 S14       30.01S HX  97
ALEXANDRIA     MOSUNNY   91  76  61 SE12      30.03S HX 103

$$

LAZ001-002-011800-
NORTHWEST LOUISIANA

CITY           SKY/WX    TMP DP  RH WIND       PRES   REMARKS
SHREVEPORT     PTSUNNY   89  72  56 SW12G17   29.99S HX  96
BARKSDALE AFB  MOSUNNY   90  72  56 SW8       30.00S HX  97
DTN SHREVEPORT PTSUNNY   86  72  62 SW10      30.00S

$$

LAZ014-016-011800-
NORTHEAST LOUISIANA

CITY           SKY/WX    TMP DP  RH WIND       PRES   REMARKS
MONROE         SUNNY     88  75  65 S12G17    30.03F HX  97
TALLULAH       PTSUNNY   86  74  67 S8        30.05F

$$




USA.gov is the U.S. government's official web portal to all federal, state and local government web resources and services.